Project,Study,Ord_Occ,Event_Num,Cast_ID,Date_Time_UTC,Date_Time_PST,Lat_Dec,Lon_Dec,Sta_ID,Line,Sta,Depth,Pressure,PrQ,Temp1,Temp1Q,Temp2,Temp2Q,TempAve,Salt1,Salt1Q,Salt1_Corr,Salt2,Salt2Q,Salt2_Corr,SaltAve_Corr,Ox1,Ox1Q,Ox1_CruiseCorr,Ox1_StaCorr,Ox2,Ox2Q,Ox2_CruiseCorr,Ox2_StaCorr,OxAve_StaCorr,Ox1uM,Ox1uM_CruiseCorr,Ox1uM_StaCorr,Ox2uM,Ox2uM_CruiseCorr,Ox2uM_StaCorr,OxAveuM_StaCorr,FluorV,FluorQ,EstChl_CruiseCorr,EstChl_StaCorr,ISUSV,ISUSQ,EstNO3_CruiseCorr,EstNO3_StaCorr,SigThetaTS1,SigThetaTS1Q,SigThetaTS2,SigThetaTS2Q,BAT,XMiss,TransQ,pH,pHQ,SPAR,SPARQ,PAR,PARQ,PoT1,PoT2,DynHt,SVA,OxSat1,OxSat2,BTL_Depth,BTL_Temp,SaltB,OxB,OxBuM,Chl-a,Phaeo,NO3,NO2,NH4,PO4,SIL
CalCOFI,2007SR,004,5,2007_004u,14-Jul-2020 01:22:44,13-Jul-2020 17:22:44,32.91338,-117.39400,093.3 028.0,093.3,028.0,517.000,521.323,,6.4977,,6.4992,,6.4985,34.2849,,34.2851,34.2859,,34.2875,34.2863,0.4013,,0.4016,0.3919,1.6406,,-99.0,0.4681,0.4300,17.452,17.7300,14.9320,71.350,,23.2171,19.0746,0.0339,,,,1.5711,,33.8767,37.470,26.9294,,26.9301,,0.6283,85.4640,,7.504,,3.7732E+02,,1.8237E-01,,6.4503,6.4518,0.9057,,5.848,23.911,,,,,,,,,,,,
CalCOFI,2007SR,004,5,2007_004u,14-Jul-2020 01:22:47,13-Jul-2020 17:22:47,32.91337,-117.39400,093.3 028.0,093.3,028.0,516.000,520.313,,6.5020,,6.5014,,6.5017,34.2848,,34.2850,34.2859,,34.2875,34.2863,0.3988,,0.3990,0.3893,1.6439,,-99.0,0.4779,0.4336,17.343,17.6163,14.8160,71.491,,23.6087,19.2124,0.0333,,,,1.5685,,33.8037,37.393,26.9288,,26.9298,,0.6288,85.4534,,7.504,,3.7381E+02,,1.8530E-01,,6.4546,6.4541,0.9057,,5.812,23.959,516,6.502,,, ,,,,,,,
CalCOFI,2007SR,004,5,2007_004u,14-Jul-2020 01:23:14,13-Jul-2020 17:23:14,32.91337,-117.39400,093.3 028.0,093.3,028.0,515.000,519.304,,6.5008,,6.5008,,6.5008,34.2846,,34.2848,34.2857,,34.2873,34.2861,0.4039,,0.4043,0.3946,1.6212,,-99.0,0.4102,0.4024,17.567,17.8501,15.0543,70.503,,20.8648,17.9596,0.0334,,,,1.5563,,33.4611,37.035,26.9288,,26.9296,,0.6281,85.4683,,7.504,,3.6305E+02,,1.8505E-01,,6.4536,6.4536,0.9083,,5.887,23.628,,,,,,,,,,,,
CalCOFI,2007SR,004,5,2007_004u,14-Jul-2020 01:23:23,13-Jul-2020 17:23:23,32.91338,-117.39400,093.3 028.0,093.3,028.0,514.000,518.294,,6.4993,,6.5002,,6.4998,34.2845,,34.2847,34.2856,,34.2872,34.2860,0.4024,,0.4028,0.3931,1.6084,,-99.0,0.3720,0.3826,17.499,17.7791,14.9820,69.945,,19.3152,17.1486,0.0330,,,,1.5549,,33.4218,36.994,26.9289,,26.9297,,0.6276,85.4799,,7.504,,3.5747E+02,,1.8787E-01,,6.4522,6.4531,0.9092,,5.864,23.441,,,,,,,,,,,,
CalCOFI,2007SR,004,5,2007_004u,14-Jul-2020 01:23:24,13-Jul-2020 17:23:24,32.91337,-117.39400,093.3 028.0,093.3,028.0,513.000,517.285,,6.5111,,6.5144,,6.5128,34.2851,,34.2853,34.2863,,34.2879,34.2866,0.4035,,0.4039,0.3942,1.6067,,-99.0,0.3669,0.3806,17.547,17.8292,15.0330,69.875,,19.1208,17.0769,0.0339,,,,1.5549,,33.4218,36.994,26.9278,,26.9284,,0.6286,85.4589,,7.504,,3.5506E+02,,1.8540E-01,,6.4640,6.4673,0.9092,,5.882,23.425,,,,,,,,,,,,
CalCOFI,2007SR,004,5,2007_004u,14-Jul-2020 01:23:25,13-Jul-2020 17:23:25,32.91336,-117.39400,093.3 028.0,093.3,028.0,512.000,516.275,,6.5292,,6.5301,,6.5297,34.2852,,34.2854,34.2865,,34.2881,34.2868,0.4078,,0.4084,0.3987,1.6044,,-99.0,0.3601,0.3794,17.734,18.0244,15.2319,69.771,,18.8319,17.0319,0.0336,,,,1.5546,,33.4134,36.985,26.9255,,26.9264,,0.6290,85.4507,,7.505,,3.5419E+02,,1.7929E-01,,6.4821,6.4830,0.9092,,5.947,23.398,,,,,,,,,,,,
CalCOFI,2007SR,004,5,2007_004u,14-Jul-2020 01:23:26,13-Jul-2020 17:23:26,32.91336,-117.39400,093.3 028.0,093.3,028.0,511.000,515.265,,6.5430,,6.5431,,6.5431,34.2850,,34.2852,34.2860,,34.2876,34.2864,0.4047,,0.4052,0.3955,1.6064,,-99.0,0.3660,0.3808,17.598,17.8825,15.0872,69.860,,19.0791,17.0832,0.0332,,,,1.5539,,33.3937,36.964,26.9235,,26.9243,,0.6297,85.4345,,7.505,,3.5419E+02,,1.8505E-01,,6.4959,6.4961,0.9092,,5.903,23.435,,,,,,,,,,,,
CalCOFI,2007SR,004,5,2007_004u,14-Jul-2020 01:23:27,13-Jul-2020 17:23:27,32.91338,-117.39400,093.3 028.0,093.3,028.0,510.000,514.256,,6.5452,,6.5452,,6.5452,34.2849,,34.2851,34.2859,,34.2875,34.2863,0.4049,,0.4054,0.3957,1.6055,,-99.0,0.3633,0.3795,17.609,17.8939,15.0989,69.823,,18.9763,17.0376,0.0336,,,,1.5532,,33.3741,36.944,26.9232,,26.9239,,0.6296,85.4374,,7.505,,3.5646E+02,,1.7680E-01,,6.4982,6.4982,0.9092,,5.907,23.424,,,,,,,,,,,,
CalCOFI,2007SR,004,5,2007_004u,14-Jul-2020 01:23:28,13-Jul-2020 17:23:28,32.91338,-117.39400,093.3 028.0,093.3,028.0,509.000,513.246,,6.5481,,6.5485,,6.5483,34.2849,,34.2851,34.2861,,34.2877,34.2864,0.4050,,0.4055,0.3958,1.6018,,-99.0,0.3523,0.3741,17.615,17.9002,15.1053,69.660,,18.5237,16.8145,0.0332,,,,1.5523,,33.3488,36.917,26.9228,,26.9236,,0.6301,85.4264,,7.506,,3.5800E+02,,1.7057E-01,,6.5012,6.5017,0.9092,,5.910,23.371,,,,,,,,,,,,
CalCOFI,2007SR,004,5,2007_004u,14-Jul-2020 01:23:30,13-Jul-2020 17:23:30,32.91338,-117.39400,093.3 028.0,093.3,028.0,508.000,512.237,,6.5549,,6.5551,,6.5550,34.2846,,34.2848,34.2857,,34.2873,34.2861,0.4088,,0.4095,0.3998,1.5951,,-99.0,0.3323,0.3661,17.777,18.0693,15.2776,69.369,,17.7155,16.4966,0.0339,,,,1.5514,,33.3235,36.891,26.9216,,26.9224,,0.6296,85.4363,,7.506,,3.5800E+02,,1.7766E-01,,6.5081,6.5083,0.9092,,5.965,23.277,,,,,,,,,,,,
CalCOFI,2007SR,004,5,2007_004u,14-Jul-2020 01:23:31,13-Jul-2020 17:23:31,32.91338,-117.39400,093.3 028.0,093.3,028.0,507.000,511.227,,6.5578,,6.5580,,6.5579,34.2844,,34.2846,34.2855,,34.2871,34.2859,0.4137,,0.4146,0.4049,1.5995,,-99.0,0.3455,0.3752,17.989,18.2906,15.5031,69.561,,18.2487,16.8759,0.0336,,,,1.5510,,33.3123,36.879,26.9211,,26.9219,,0.6298,85.4327,,7.506,,3.5677E+02,,1.7636E-01,,6.5111,6.5113,0.9092,,6.037,23.343,,,,,,,,,,,,
CalCOFI,2007SR,004,5,2007_004u,14-Jul-2020 01:23:31,13-Jul-2020 17:23:31,32.91338,-117.39400,093.3 028.0,093.3,028.0,506.000,510.217,,6.5608,,6.5611,,6.5610,34.2842,,34.2844,34.2851,,34.2867,34.2856,0.4082,,0.4088,0.3992,1.5996,,-99.0,0.3457,0.3725,17.752,18.0432,15.2510,69.567,,18.2654,16.7582,0.0333,,,,1.5511,,33.3151,36.882,26.9205,,26.9212,,0.6298,85.4327,,7.507,,3.5449E+02,,1.7225E-01,,6.5142,6.5145,0.9092,,5.957,23.346,,,,,,,,,,,,
CalCOFI,2007SR,004,5,2007_004u,14-Jul-2020 01:23:32,13-Jul-2020 17:23:32,32.91337,-117.39400,093.3 028.0,093.3,028.0,505.000,509.208,,6.5646,,6.5658,,6.5652,34.2841,,34.2843,34.2851,,34.2867,34.2855,0.4083,,0.4089,0.3993,1.5992,,-99.0,0.3446,0.3720,17.756,18.0474,15.2553,69.549,,18.2154,16.7354,0.0333,,,,1.5512,,33.3179,36.885,26.9199,,26.9206,,0.6318,85.3894,,7.507,,3.5151E+02,,1.7361E-01,,6.5180,6.5193,0.9092,,5.959,23.343,,,,,,,,,,,,
CalCOFI,2007SR,004,5,2007_004u,14-Jul-2020 01:23:33,13-Jul-2020 17:23:33,32.91336,-117.39400,093.3 028.0,093.3,028.0,504.000,508.198,,6.5754,,6.5767,,6.5761,34.2837,,34.2839,34.2845,,34.2861,34.2850,0.4097,,0.4104,0.4007,1.5981,,-99.0,0.3413,0.3710,17.818,18.1121,15.3212,69.501,,18.0821,16.7017,0.0333,,,,1.5514,,33.3235,36.891,26.9181,,26.9186,,0.6293,85.4438,,7.506,,3.4929E+02,,1.7098E-01,,6.5289,6.5302,0.9092,,5.981,23.332,,,,,,,,,,,,
CalCOFI,2007SR,004,5,2007_004u,14-Jul-2020 01:23:34,13-Jul-2020 17:23:34,32.91336,-117.39400,093.3 028.0,093.3,028.0,503.000,507.189,,6.5802,,6.5805,,6.5804,34.2834,,34.2836,34.2843,,34.2859,34.2848,0.4140,,0.4149,0.4053,1.5900,,-99.0,0.3171,0.3612,18.004,18.3063,15.5191,69.147,,17.0990,16.3091,0.0327,,,,1.5518,,33.3347,36.902,26.9173,,26.9179,,0.6294,85.4403,,7.507,,3.4849E+02,,1.6245E-01,,6.5338,6.5341,0.9092,,6.044,23.215,,,,,,,,,,,,
CalCOFI,2007SR,004,5,2007_004u,14-Jul-2020 01:23:35,13-Jul-2020 17:23:35,32.91337,-117.39400,093.3 028.0,093.3,028.0,502.000,506.179,,6.5877,,6.5884,,6.5881,34.2839,,34.2841,34.2850,,34.2866,34.2854,0.4132,,0.4141,0.4044,1.5891,,-99.0,0.3144,0.3594,17.970,18.2708,15.4829,69.110,,16.9962,16.2396,0.0339,,,,1.5519,,33.3375,36.905,26.9166,,26.9174,,0.6298,85.4336,,7.507,,3.4907E+02,,1.7079E-01,,6.5414,6.5421,0.9092,,6.034,23.207,,,,,,,,,,,,
CalCOFI,2007SR,004,5,2007_004u,14-Jul-2020 01:23:37,13-Jul-2020 17:23:37,32.91338,-117.39400,093.3 028.0,093.3,028.0,501.000,505.170,,6.5980,,6.5980,,6.5980,34.2833,,34.2835,34.2843,,34.2859,34.2847,0.4116,,0.4124,0.4027,1.5921,,-99.0,0.3234,0.3631,17.900,18.1977,15.4085,69.241,,17.3600,16.3843,0.0336,,,,1.5515,,33.3263,36.894,26.9148,,26.9156,,0.6298,85.4327,,7.507,,3.5168E+02,,1.6636E-01,,6.5518,6.5517,0.9092,,6.012,23.256,,,,,,,,,,,,
CalCOFI,2007SR,004,5,2007_004u,14-Jul-2020 01:23:38,13-Jul-2020 17:23:38,32.91338,-117.39400,093.3 028.0,093.3,028.0,500.000,504.160,,6.6024,,6.6048,,6.6036,34.2829,,34.2831,34.2844,,34.2860,34.2846,0.4152,,0.4161,0.4065,1.5916,,-99.0,0.3219,0.3642,18.058,18.3626,15.5765,69.219,,17.2989,16.4377,0.0342,,,,1.5509,,33.3095,36.876,26.9139,,26.9147,,0.6296,85.4370,,7.508,,3.5424E+02,,1.6406E-01,,6.5562,6.5586,0.9092,,6.066,23.253,,,,,,,,,,,,
CalCOFI,2007SR,004,5,2007_004u,14-Jul-2020 01:23:39,13-Jul-2020 17:23:39,32.91338,-117.39400,093.3 028.0,093.3,028.0,499.000,503.151,,6.6047,,6.6081,,6.6064,34.2827,,34.2829,34.2833,,34.2849,34.2839,0.4178,,0.4189,0.4092,1.5913,,-99.0,0.3210,0.3651,18.171,18.4806,15.6967,69.205,,17.2600,16.4784,0.0342,,,,1.5500,,33.2842,36.850,26.9134,,26.9135,,0.6287,85.4568,,7.508,,3.5419E+02,,1.6593E-01,,6.5585,6.5619,0.9092,,6.104,23.250,,,,,,,,,,,,
CalCOFI,2007SR,004,5,2007_004u,14-Jul-2020 01:23:40,13-Jul-2020 17:23:40,32.91338,-117.39400,093.3 028.0,093.3,028.0,498.000,502.141,,6.6072,,6.6080,,6.6076,34.2830,,34.2832,34.2840,,34.2856,34.2844,0.4135,,0.4144,0.4047,1.5911,,-99.0,0.3204,0.3626,17.983,18.2844,15.4967,69.196,,17.2350,16.3659,0.0338,,,,1.5488,,33.2505,36.814,26.9133,,26.9140,,0.6287,85.4562,,7.508,,3.5178E+02,,1.7578E-01,,6.5612,6.5619,0.9092,,6.041,23.247,,,,,,,,,,,,
CalCOFI,2007SR,004,5,2007_004u,14-Jul-2020 01:23:41,13-Jul-2020 17:23:41,32.91338,-117.39400,093.3 028.0,093.3,028.0,497.000,501.131,,6.6110,,6.6124,,6.6117,34.2832,,34.2834,34.2840,,34.2856,34.2845,0.4148,,0.4157,0.4061,1.5907,,-99.0,0.3192,0.3627,18.039,18.3428,15.5563,69.178,,17.1850,16.3707,0.0333,,,,1.5476,,33.2168,36.779,26.9130,,26.9134,,0.6291,85.4479,,7.508,,3.4942E+02,,1.6702E-01,,6.5651,6.5665,0.9092,,6.061,23.243,,,,,,,,,,,,
CalCOFI,2007SR,004,5,2007_004u,14-Jul-2020 01:23:41,13-Jul-2020 17:23:41,32.91338,-117.39400,093.3 028.0,093.3,028.0,496.000,500.122,,6.6108,,6.6117,,6.6113,34.2830,,34.2832,34.2837,,34.2853,34.2843,0.4143,,0.4152,0.4056,1.5905,,-99.0,0.3186,0.3621,18.019,18.3219,15.5350,69.171,,17.1656,16.3503,0.0330,,,,1.5462,,33.1775,36.738,26.9128,,26.9133,,0.6291,85.4484,,7.507,,3.4679E+02,,1.7217E-01,,6.5650,6.5658,0.9092,,6.054,23.240,,,,,,,,,,,,
CalCOFI,2007SR,004,5,2007_004u,14-Jul-2020 01:23:42,13-Jul-2020 17:23:42,32.91336,-117.39400,093.3 028.0,093.3,028.0,495.000,499.113,,6.6112,,6.6119,,6.6116,34.2833,,34.2835,34.2844,,34.2860,34.2848,0.4140,,0.4149,0.4053,1.5865,,-99.0,0.3067,0.3560,18.005,18.3073,15.5201,68.996,,16.6796,16.0999,0.0337,,,,1.5448,,33.1382,36.697,26.9130,,26.9137,,0.6301,85.4261,,7.508,,3.4464E+02,,1.6492E-01,,6.5654,6.5662,0.9092,,6.049,23.181,,,,,,,,,,,,
CalCOFI,2007SR,004,5,2007_004u,14-Jul-2020 01:23:43,13-Jul-2020 17:23:43,32.91336,-117.39400,093.3 028.0,093.3,028.0,494.000,498.103,,6.6312,,6.6354,,6.6333,34.2834,,34.2836,34.2843,,34.2859,34.2848,0.4138,,0.4147,0.4050,1.5794,,-99.0,0.2855,0.3453,17.993,18.2948,15.5074,68.689,,15.8270,15.6672,0.0334,,,,1.5437,,33.1073,36.664,26.9104,,26.9105,,0.6291,85.4476,,7.508,,3.4294E+02,,1.6732E-01,,6.5855,6.5897,0.9092,,6.048,23.091,,,,,,,,,,,,
CalCOFI,2007SR,004,5,2007_004u,14-Jul-2020 01:23:44,13-Jul-2020 17:23:44,32.91336,-117.39400,093.3 028.0,093.3,028.0,493.000,497.093,,6.6168,,6.6194,,6.6181,34.2833,,34.2835,34.2842,,34.2858,34.2847,0.4139,,0.4148,0.4051,1.5847,,-99.0,0.3013,0.3532,17.998,18.3000,15.5127,68.917,,16.4602,15.9865,0.0334,,,,1.5425,,33.0736,36.629,26.9122,,26.9126,,0.6288,85.4534,,7.508,,3.4442E+02,,1.6861E-01,,6.5712,6.5738,0.9092,,6.048,23.159,,,,,,,,,,,,
CalCOFI,2007SR,004,5,2007_004u,14-Jul-2020 01:23:45,13-Jul-2020 17:23:45,32.91338,-117.39400,093.3 028.0,093.3,028.0,492.000,496.084,,6.6223,,6.6229,,6.6226,34.2833,,34.2835,34.2849,,34.2865,34.2850,0.4161,,0.4171,0.4075,1.5838,,-99.0,0.2986,0.3531,18.095,18.4013,15.6159,68.877,,16.3491,15.9825,0.0339,,,,1.5406,,33.0202,36.573,26.9115,,26.9127,,0.6295,85.4385,,7.508,,3.4700E+02,,1.7106E-01,,6.5767,6.5774,0.9092,,6.081,23.147,,,,,,,,,,,,
CalCOFI,2007SR,004,5,2007_004u,14-Jul-2020 01:23:47,13-Jul-2020 17:23:47,32.91338,-117.39400,093.3 028.0,093.3,028.0,491.000,495.074,,6.6373,,6.6437,,6.6405,34.2841,,34.2843,34.2855,,34.2871,34.2857,0.4218,,0.4230,0.4134,1.5832,,-99.0,0.2968,0.3551,18.344,18.6612,15.8807,68.854,,16.2852,16.0830,0.0334,,,,1.5385,,32.9613,36.511,26.9101,,26.9104,,0.6292,85.4458,,7.508,,3.4854E+02,,1.7099E-01,,6.5918,6.5982,0.9092,,6.167,23.151,,,,,,,,,,,,
CalCOFI,2007SR,004,5,2007_004u,14-Jul-2020 01:23:48,13-Jul-2020 17:23:48,32.91338,-117.39400,093.3 028.0,093.3,028.0,490.000,494.065,,6.6478,,6.6501,,6.6490,34.2840,,34.2842,34.2844,,34.2860,34.2851,0.4171,,0.4181,0.4085,1.5827,,-99.0,0.2953,0.3519,18.138,18.4462,15.6616,68.833,,16.2269,15.9443,0.0338,,,,1.5373,,32.9276,36.476,26.9086,,26.9086,,0.6280,85.4716,,7.508,,3.4799E+02,,1.7117E-01,,6.6024,6.6047,0.9092,,6.099,23.147,,,,,,,,,,,,
CalCOFI,2007SR,004,5,2007_004u,14-Jul-2020 01:23:49,13-Jul-2020 17:23:49,32.91338,-117.39400,093.3 028.0,093.3,028.0,489.000,493.055,,6.6520,,6.6546,,6.6533,34.2842,,34.2844,34.2852,,34.2868,34.2856,0.4174,,0.4184,0.4088,1.5813,,-99.0,0.2912,0.3500,18.154,18.4629,15.6786,68.772,,16.0575,15.8681,0.0333,,,,1.5361,,32.8939,36.441,26.9082,,26.9087,,0.6276,85.4798,,7.508,,3.4658E+02,,1.7264E-01,,6.6067,6.6093,0.9092,,6.105,23.129,,,,,,,,,,,,
CalCOFI,2007SR,004,5,2007_004u,14-Jul-2020 01:23:50,13-Jul-2020 17:23:50,32.91338,-117.39400,093.3 028.0,093.3,028.0,488.000,492.046,,6.6639,,6.6655,,6.6647,34.2841,,34.2843,34.2850,,34.2866,34.2855,0.4222,,0.4235,0.4139,1.5752,,-99.0,0.2730,0.3435,18.362,18.6800,15.8998,68.503,,15.3104,15.6051,0.0340,,,,1.5351,,32.8658,36.411,26.9065,,26.9070,,0.6276,85.4798,,7.508,,3.4564E+02,,1.6941E-01,,6.6186,6.6202,0.9092,,6.177,23.044,,,,,,,,,,,,
CalCOFI,2007SR,004,5,2007_004u,14-Jul-2020 01:23:51,13-Jul-2020 17:23:51,32.91338,-117.39400,093.3 028.0,093.3,028.0,487.000,491.036,,6.6681,,6.6698,,6.6690,34.2840,,34.2842,34.2854,,34.2870,34.2856,0.4257,,0.4271,0.4175,1.5731,,-99.0,0.2667,0.3421,18.514,18.8387,16.0615,68.416,,15.0688,15.5652,0.0327,,,,1.5342,,32.8405,36.385,26.9059,,26.9068,,0.6277,85.4785,,7.508,,3.4469E+02,,1.6117E-01,,6.6229,6.6246,0.9092,,6.228,23.017,,,,,,,,,,,,
CalCOFI,2007SR,004,5,2007_004u,14-Jul-2020 01:23:51,13-Jul-2020 17:23:51,32.91338,-117.39400,093.3 028.0,093.3,028.0,486.000,490.027,,6.6811,,6.6974,,6.6893,34.2843,,34.2845,34.2851,,34.2867,34.2856,0.4212,,0.4224,0.4128,1.5761,,-99.0,0.2756,0.3442,18.319,18.6351,15.8541,68.546,,15.4299,15.6420,0.0324,,,,1.5333,,32.8153,36.359,26.9044,,26.9028,,0.6270,85.4920,,7.508,,3.4300E+02,,1.6308E-01,,6.6359,6.6522,0.9092,,6.165,23.076,,,,,,,,,,,,
CalCOFI,2007SR,004,5,2007_004u,14-Jul-2020 01:23:52,13-Jul-2020 17:23:52,32.91336,-117.39400,093.3 028.0,093.3,028.0,485.000,489.018,,6.7041,,6.7036,,6.7039,34.2848,,34.2850,34.2861,,34.2877,34.2864,0.4236,,0.4249,0.4153,1.5719,,-99.0,0.2631,0.3392,18.421,18.7416,15.9626,68.360,,14.9133,15.4380,0.0341,,,,1.5326,,32.7956,36.338,26.9016,,26.9028,,0.6266,85.5023,,7.508,,3.4162E+02,,1.6681E-01,,6.6590,6.6585,0.9092,,6.202,23.017,,,,,,,,,,,,
CalCOFI,2007SR,004,5,2007_004u,14-Jul-2020 01:23:53,13-Jul-2020 17:23:53,32.91337,-117.39400,093.3 028.0,093.3,028.0,484.000,488.008,,6.6968,,6.6965,,6.6967,34.2842,,34.2844,34.2846,,34.2862,34.2853,0.4305,,0.4321,0.4226,1.5746,,-99.0,0.2712,0.3469,18.721,19.0548,16.2817,68.479,,15.2438,15.7628,0.0334,,,,1.5321,,32.7816,36.323,26.9022,,26.9025,,0.6266,85.5017,,7.508,,3.4086E+02,,1.6605E-01,,6.6517,6.6515,0.9092,,6.302,23.053,,,,,,,,,,,,
CalCOFI,2007SR,004,5,2007_004u,14-Jul-2020 01:23:54,13-Jul-2020 17:23:54,32.91338,-117.39400,093.3 028.0,093.3,028.0,483.000,486.999,,6.7223,,6.7335,,6.7279,34.2850,,34.2852,34.2884,,34.2900,34.2876,0.4358,,0.4377,0.4282,1.5729,,-99.0,0.2661,0.3472,18.951,19.2948,16.5263,68.406,,15.0410,15.7837,0.0336,,,,1.5323,,32.7872,36.329,26.8994,,26.9005,,0.6265,85.5034,,7.508,,3.4086E+02,,1.7327E-01,,6.6773,6.6884,0.9092,,6.384,23.048,,,,,,,,,,,,
CalCOFI,2007SR,004,5,2007_004u,14-Jul-2020 01:23:56,13-Jul-2020 17:23:56,32.91338,-117.39400,093.3 028.0,093.3,028.0,482.000,485.989,,6.7574,,6.7672,,6.7623,34.2830,,34.2832,34.2823,,34.2839,34.2836,0.4418,,0.4439,0.4345,1.5714,,-99.0,0.2616,0.3481,19.212,19.5673,16.8039,68.341,,14.8605,15.8322,0.0333,,,,1.5337,,32.8265,36.370,26.8931,,26.8913,,0.6267,85.4988,,7.509,,3.4192E+02,,1.6184E-01,,6.7124,6.7221,0.9092,,6.477,23.043,,,,,,,,,,,,
CalCOFI,2007SR,004,5,2007_004u,14-Jul-2020 01:23:57,13-Jul-2020 17:23:57,32.91338,-117.39400,093.3 028.0,093.3,028.0,481.000,484.980,,6.7739,,6.7700,,6.7720,34.2816,,34.2818,34.2830,,34.2846,34.2832,0.4438,,0.4460,0.4366,1.5711,,-99.0,0.2607,0.3487,19.299,19.6581,16.8965,68.327,,14.8216,15.8591,0.0335,,,,1.5357,,32.8827,36.429,26.8898,,26.8914,,0.6269,85.4944,,7.509,,3.4323E+02,,1.6257E-01,,6.7289,6.7250,0.9092,,6.508,23.040,,,,,,,,,,,,
CalCOFI,2007SR,004,5,2007_004u,14-Jul-2020 01:23:58,13-Jul-2020 17:23:58,32.91338,-117.39400,093.3 028.0,093.3,028.0,480.000,483.970,,6.7800,,6.7907,,6.7854,34.2811,,34.2813,34.2821,,34.2837,34.2825,0.4450,,0.4473,0.4378,1.5683,,-99.0,0.2524,0.3451,19.353,19.7145,16.9539,68.208,,14.4912,15.7226,0.0334,,,,1.5373,,32.9276,36.476,26.8886,,26.8879,,0.6265,85.5034,,7.510,,3.4361E+02,,1.6510E-01,,6.7351,6.7457,0.9092,,6.527,23.011,,,,,,,,,,,,
CalCOFI,2007SR,004,5,2007_004u,14-Jul-2020 01:23:59,13-Jul-2020 17:23:59,32.91338,-117.39400,093.3 028.0,093.3,028.0,479.000,482.961,,6.7933,,6.7978,,6.7956,34.2797,,34.2799,34.2787,,34.2803,34.2801,0.4489,,0.4514,0.4419,1.5630,,-99.0,0.2366,0.3393,19.524,19.8930,17.1358,67.976,,13.8468,15.4913,0.0335,,,,1.5384,,32.9585,36.509,26.8856,,26.8842,,0.6269,85.4957,,7.510,,3.4267E+02,,1.6752E-01,,6.7484,6.7529,0.9092,,6.587,22.935,,,,,,,,,,,,
CalCOFI,2007SR,004,5,2007_004u,14-Jul-2020 01:24:00,13-Jul-2020 17:24:00,32.91338,-117.39400,093.3 028.0,093.3,028.0,478.000,481.951,,6.7836,,6.7838,,6.7837,34.2790,,34.2792,34.2802,,34.2818,34.2805,0.4594,,0.4623,0.4530,1.5616,,-99.0,0.2324,0.3427,19.979,20.3680,17.6197,67.915,,13.6774,15.6486,0.0330,,,,1.5386,,32.9641,36.514,26.8864,,26.8873,,0.6265,85.5035,,7.511,,3.4084E+02,,1.6073E-01,,6.7388,6.7390,0.9092,,6.739,22.908,,,,,,,,,,,,
CalCOFI,2007SR,004,5,2007_004u,14-Jul-2020 01:24:01,13-Jul-2020 17:24:01,32.91338,-117.39400,093.3 028.0,093.3,028.0,477.000,480.942,,6.8007,,6.8089,,6.8048,34.2810,,34.2812,34.2831,,34.2847,34.2830,0.4640,,0.4671,0.4578,1.5616,,-99.0,0.2324,0.3451,20.181,20.5788,17.8346,67.916,,13.6802,15.7574,0.0341,,,,1.5386,,32.9641,36.514,26.8856,,26.8862,,0.6265,85.5034,,7.511,,3.3898E+02,,1.6929E-01,,6.7560,6.7641,0.9092,,6.810,22.922,,,,,,,,,,,,
CalCOFI,2007SR,004,5,2007_004u,14-Jul-2020 01:24:02,13-Jul-2020 17:24:02,32.91338,-117.39400,093.3 028.0,093.3,028.0,476.000,479.932,,6.8394,,6.8539,,6.8467,34.2824,,34.2826,34.2837,,34.2853,34.2840,0.4705,,0.4739,0.4646,1.5584,,-99.0,0.2229,0.3438,20.461,20.8711,18.1324,67.777,,13.2942,15.7133,0.0334,,,,1.5389,,32.9725,36.523,26.8816,,26.8806,,0.6273,85.4872,,7.512,,3.3766E+02,,1.5909E-01,,6.7946,6.8090,0.9092,,6.911,22.898,,,,,,,,,,,,
CalCOFI,2007SR,004,5,2007_004u,14-Jul-2020 01:24:02,13-Jul-2020 17:24:02,32.91337,-117.39400,093.3 028.0,093.3,028.0,475.000,478.923,,6.8788,,6.8867,,6.8828,34.2795,,34.2797,34.2803,,34.2819,34.2808,0.4817,,0.4856,0.4764,1.5574,,-99.0,0.2199,0.3482,20.952,21.3837,18.6546,67.733,,13.1720,15.9133,0.0341,,,,1.5390,,32.9753,36.526,26.8739,,26.8735,,0.6265,85.5033,,7.512,,3.3706E+02,,1.6226E-01,,6.8340,6.8419,0.9092,,7.082,22.900,,,,,,,,,,,,
CalCOFI,2007SR,004,5,2007_004u,14-Jul-2020 01:24:03,13-Jul-2020 17:24:03,32.91337,-117.39400,093.3 028.0,093.3,028.0,474.000,477.914,,6.9009,,6.9120,,6.9065,34.2782,,34.2784,34.2779,,34.2795,34.2790,0.4888,,0.4930,0.4839,1.5601,,-99.0,0.2279,0.3559,21.261,21.7063,18.9833,67.850,,13.4969,16.2401,0.0332,,,,1.5388,,32.9697,36.520,26.8699,,26.8682,,0.6270,85.4918,,7.513,,3.3706E+02,,1.6654E-01,,6.8561,6.8672,0.9092,,7.190,22.953,,,,,,,,,,,,
CalCOFI,2007SR,004,5,2007_004u,14-Jul-2020 01:24:05,13-Jul-2020 17:24:05,32.91338,-117.39400,093.3 028.0,093.3,028.0,473.000,476.904,,6.9202,,6.9248,,6.9225,34.2749,,34.2751,34.2752,,34.2768,34.2760,0.4926,,0.4970,0.4878,1.5517,,-99.0,0.2029,0.3454,21.425,21.8775,19.1577,67.485,,12.4832,15.8205,0.0338,,,,1.5379,,32.9444,36.494,26.8647,,26.8643,,0.6285,85.4595,,7.513,,3.3831E+02,,1.6222E-01,,6.8754,6.8800,0.9092,,7.249,22.836,,,,,,,,,,,,
CalCOFI,2007SR,004,5,2007_004u,14-Jul-2020 01:24:06,13-Jul-2020 17:24:06,32.91338,-117.39400,093.3 028.0,093.3,028.0,472.000,475.895,,6.9396,,6.9426,,6.9411,34.2720,,34.2722,34.2729,,34.2745,34.2734,0.4945,,0.4990,0.4898,1.5554,,-99.0,0.2139,0.3519,21.507,21.9631,19.2449,67.646,,12.9304,16.0877,0.0335,,,,1.5364,,32.9023,36.450,26.8597,,26.8600,,0.6297,85.4356,,7.512,,3.3898E+02,,1.6180E-01,,6.8949,6.8979,0.9092,,7.280,22.899,,,,,,,,,,,,
CalCOFI,2007SR,004,5,2007_004u,14-Jul-2020 01:24:07,13-Jul-2020 17:24:07,32.91338,-117.39400,093.3 028.0,093.3,028.0,471.000,474.885,,6.9487,,6.9492,,6.9490,34.2714,,34.2716,34.2723,,34.2739,34.2728,0.4936,,0.4981,0.4889,1.5494,,-99.0,0.1960,0.3425,21.470,21.9244,19.2056,67.385,,12.2055,15.7056,0.0331,,,,1.5353,,32.8714,36.417,26.8580,,26.8586,,0.6297,85.4354,,7.512,,3.3896E+02,,1.6212E-01,,6.9040,6.9045,0.9092,,7.269,22.814,,,,,,,,,,,,
CalCOFI,2007SR,004,5,2007_004u,14-Jul-2020 01:24:08,13-Jul-2020 17:24:08,32.91338,-117.39400,093.3 028.0,093.3,028.0,470.000,473.876,,6.9447,,6.9450,,6.9449,34.2711,,34.2713,34.2714,,34.2730,34.2722,0.4951,,0.4996,0.4905,1.5551,,-99.0,0.2130,0.3518,21.535,21.9923,19.2747,67.632,,12.8915,16.0831,0.0338,,,,1.5342,,32.8405,36.385,26.8583,,26.8585,,0.6315,85.3972,,7.512,,3.3744E+02,,1.5614E-01,,6.9002,6.9004,0.9092,,7.290,22.895,,,,,,,,,,,,
CalCOFI,2007SR,004,5,2007_004u,14-Jul-2020 01:24:09,13-Jul-2020 17:24:09,32.91338,-117.39400,093.3 028.0,093.3,028.0,469.000,472.867,,6.9490,,6.9488,,6.9489,34.2718,,34.2720,34.2727,,34.2743,34.2732,0.4957,,0.5003,0.4911,1.5541,,-99.0,0.2100,0.3506,21.558,22.0163,19.2992,67.592,,12.7804,16.0398,0.0338,,,,1.5327,,32.7984,36.341,26.8582,,26.8589,,0.6304,85.4191,,7.512,,3.3706E+02,,1.6192E-01,,6.9045,6.9044,0.9092,,7.299,22.884,,,,,,,,,,,,
CalCOFI,2007SR,004,5,2007_004u,14-Jul-2020 01:24:10,13-Jul-2020 17:24:10,32.91338,-117.39400,093.3 028.0,093.3,028.0,468.000,471.857,,6.9665,,6.9610,,6.9638,34.2723,,34.2725,34.2725,,34.2741,34.2733,0.4911,,0.4955,0.4863,1.5475,,-99.0,0.1903,0.3383,21.360,21.8096,19.0886,67.304,,11.9806,15.5346,0.0336,,,,1.5308,,32.7451,36.285,26.8562,,26.8571,,0.6298,85.4330,,7.513,,3.3706E+02,,1.6517E-01,,6.9220,6.9166,0.9092,,7.234,22.793,,,,,,,,,,,,
CalCOFI,2007SR,004,5,2007_004u,14-Jul-2020 01:24:11,13-Jul-2020 17:24:11,32.91338,-117.39400,093.3 028.0,093.3,028.0,467.000,470.848,,6.9524,,6.9594,,6.9559,34.2721,,34.2723,34.2741,,34.2757,34.2740,0.4962,,0.5008,0.4916,1.5598,,-99.0,0.2270,0.3593,21.580,22.0393,19.3226,67.838,,13.4636,16.3931,0.0335,,,,1.5283,,32.6749,36.212,26.8579,,26.8586,,0.6298,85.4327,,7.514,,3.3587E+02,,1.6821E-01,,6.9081,6.9151,0.9092,,7.307,22.973,,,,,,,,,,,,
CalCOFI,2007SR,004,5,2007_004u,14-Jul-2020 01:24:12,13-Jul-2020 17:24:12,32.91338,-117.39400,093.3 028.0,093.3,028.0,466.000,469.838,,6.9983,,6.9947,,6.9965,34.2742,,34.2744,34.2740,,34.2756,34.2750,0.4989,,0.5036,0.4945,1.5567,,-99.0,0.2178,0.3562,21.699,22.1635,19.4491,67.703,,13.0887,16.2689,0.0342,,,,1.5249,,32.5794,36.112,26.8533,,26.8537,,0.6302,85.4249,,7.513,,3.3515E+02,,1.6635E-01,,6.9540,6.9504,0.9092,,7.355,22.946,,,,,,,,,,,,